Quinhagak, AK

1:55 PM AKST on February 19, 2017 (GMT -0900)
Quinhagak

Weather History for PAQH - January, 2014

Change the Weather History Date:

Wednesday, January 29, 2014

  Actual Average (PABE) Record (PABE)
Temperature  
Mean Temperature 38 °F -  
Max Temperature 43 °F 10 °F 42 °F (1945)
Min Temperature 34 °F -1 °F -42 °F (1989)
Degree Days  
Heating Degree Days 28    
Moisture  
Dew Point 34 °F    
Average Humidity 82    
Maximum Humidity 93    
Minimum Humidity 76    
Precipitation  
Precipitation 0.00 in - - ()
Sea Level Pressure  
Sea Level Pressure 29.74 in    
Wind  
Wind Speed 15 mph (East)    
Max Wind Speed 23 mph    
Max Gust Speed 32 mph    
Visibility 10 miles    
Events Rain    
Averages and records for this station are not official NWS values.
T = Trace of Precipitation, MM = Missing Value Source: NWS Daily Summary

Daily Weather History Graph

Daily Weather History Graph

Search for Another Location

Airport or City:

Trip Planner

Search our weather history database for the weather conditions in past years. The results will help you decide how hot, cold, wet, or windy it might be!

Date:

Astronomy

Jan. 29, 2014 Rise Set
Actual Time 10:05 AM AKST 5:56 PM AKST
Civil Twilight 9:18 AM AKST 6:43 PM AKST
Nautical Twilight 8:27 AM AKST 7:34 PM AKST
Astronomical Twilight 7:39 AM AKST 8:23 PM AKST
Moon 8:53 AM AKST (1/29) 5:13 PM AKST (1/29)
Length of Visible Light 9h 25m
Length of Day
7h 50m
Waning Crescent, 2% of the Moon is Illuminated
Jan 29
Waning Crescent
Jan 30
New
Feb 6
First Quarter
Feb 14
Full
Feb 22
Last Quarter

Hourly Weather History & Observations

Time (AKST) Temp. Windchill Dew Point Humidity Pressure Visibility Wind Dir Wind Speed Gust Speed Precip Events Conditions
12:56 AM 36.0 °F 26.3 °F 30.0 °F 79% 29.63 in 10.0 mi East 16.1 mph - N/A   Clear
1:56 AM 37.0 °F 27.7 °F 30.9 °F 79% 29.65 in 10.0 mi East 16.1 mph - N/A   Clear
3:56 AM 35.1 °F 28.6 °F 30.9 °F 85% 29.67 in 10.0 mi East 8.1 mph - N/A   Overcast
4:56 AM 36.0 °F 28.0 °F 30.9 °F 82% 29.68 in 10.0 mi East 11.5 mph - N/A   Partly Cloudy
5:56 AM 34.0 °F 25.0 °F 30.9 °F 89% 29.68 in 10.0 mi East 12.7 mph - N/A   Clear
6:56 AM 34.0 °F 27.2 °F 30.9 °F 89% 29.69 in 10.0 mi ENE 8.1 mph - N/A   Mostly Cloudy
7:35 AM 35.6 °F 28.6 °F 33.8 °F 93% 29.69 in 10.0 mi East 9.2 mph - N/A   Overcast
7:56 AM 37.9 °F 30.0 °F 34.0 °F 86% 29.70 in 10.0 mi East 12.7 mph - N/A   Overcast
8:56 AM 39.0 °F 31.8 °F 34.0 °F 82% 29.70 in 10.0 mi East 11.5 mph - N/A   Overcast
9:56 AM 37.9 °F 33.5 °F 34.0 °F 86% 29.72 in 10.0 mi East 5.8 mph - N/A   Overcast
10:56 AM 39.9 °F 31.4 °F 34.0 °F 79% 29.73 in 10.0 mi East 16.1 mph - N/A   Overcast
11:41 AM 39.2 °F 29.3 °F 33.8 °F 81% 29.74 in 10.0 mi East 20.7 mph 32.2 mph N/A   Scattered Clouds
11:56 AM 39.9 °F 30.8 °F 34.0 °F 79% 29.74 in 10.0 mi East 18.4 mph 26.5 mph N/A   Mostly Cloudy
12:56 PM 39.9 °F 30.8 °F 35.1 °F 83% 29.76 in 10.0 mi East 18.4 mph - N/A   Overcast
1:56 PM 41.0 °F 31.6 °F 35.1 °F 79% 29.75 in 10.0 mi East 20.7 mph - N/A   Scattered Clouds
2:56 PM 41.0 °F 32.2 °F 34.0 °F 76% 29.76 in 10.0 mi ESE 18.4 mph - N/A   Scattered Clouds
3:56 PM 39.9 °F 30.8 °F 34.0 °F 79% 29.77 in 10.0 mi ESE 18.4 mph - N/A   Clear
4:56 PM 39.9 °F 30.0 °F 35.1 °F 83% 29.77 in 10.0 mi East 21.9 mph - N/A   Mostly Cloudy
5:56 PM 39.9 °F 30.0 °F 34.0 °F 79% 29.77 in 10.0 mi East 21.9 mph - N/A   Overcast
6:56 PM 39.9 °F 30.2 °F 34.0 °F 79% 29.78 in 10.0 mi East 20.7 mph - 0.00 in Rain Light Rain
7:56 PM 39.0 °F 28.8 °F 35.1 °F 86% 29.79 in 10.0 mi East 21.9 mph - 0.00 in Rain Light Rain
8:56 PM 39.9 °F 29.7 °F 35.1 °F 83% 29.79 in 10.0 mi East 23.0 mph 31.1 mph 0.00 in   Overcast
9:56 PM 39.9 °F 29.7 °F 34.0 °F 79% 29.80 in 10.0 mi East 23.0 mph 29.9 mph N/A   Overcast
10:56 PM 41.0 °F 31.9 °F 35.1 °F 79% 29.81 in 10.0 mi East 19.6 mph - N/A   Mostly Cloudy
11:56 PM 43.0 °F 34.2 °F 36.0 °F 76% 29.83 in 10.0 mi East 20.7 mph 24.2 mph 0.00 in   Overcast